ICL1772 UAAA-LLBG

Flight info

Callsign ICL1772
Flight time 5h 27m
Altitude 32000
Route TIPSA M610 ARBOL Z621 GENDI N147 OTBOR/N0492F320 A480 TIMGA B476 METKA L88 NIJAT N644 BADIR DCT NOLGA UN61 TBN UW706 SIV UT284 EVKIT UB545 VESAR DCT EMEDA DCT TUZIB L189 ZUKKO
Aircraft B77L/H-SDE1E2E3FGHIJ2J3J4J5M1RWXY/LB1D1

Departure

Time 2026-04-21 06:25
Airport Almaty International Airport (UAAA)

Arrival

Time 2026-04-21 11:53
Airport Ben Gurion International Airport (LLBG)
Time Latitude Longitude Altitude Speed Heading
2026-04-21 05:44 43.35123 77.01746 2233 ft 0 kts
2026-04-21 06:09 43.35109 77.01745 2233 ft 4 kts
2026-04-21 06:09 43.35082 77.01740 2233 ft 4 kts
2026-04-21 06:09 43.35056 77.01737 2233 ft 4 kts 345°
2026-04-21 06:09 43.35036 77.01752 2233 ft 4 kts 309°
2026-04-21 06:10 43.35027 77.01784 2233 ft 4 kts 266°
2026-04-21 06:10 43.35031 77.01820 2233 ft 4 kts 264°
2026-04-21 06:10 43.35030 77.01856 2233 ft 4 kts 275°
2026-04-21 06:10 43.35028 77.01893 2233 ft 4 kts 270°
2026-04-21 06:11 43.35028 77.01930 2233 ft 4 kts 272°
2026-04-21 06:11 43.35027 77.01967 2233 ft 4 kts 273°
2026-04-21 06:11 43.35026 77.02004 2233 ft 4 kts 273°
2026-04-21 06:11 43.35024 77.02041 2233 ft 4 kts 273°
2026-04-21 06:12 43.35023 77.02078 2233 ft 4 kts 272°
2026-04-21 06:12 43.35022 77.02115 2233 ft 4 kts 274°
2026-04-21 06:12 43.35019 77.02152 2233 ft 3 kts 276°
2026-04-21 06:12 43.35016 77.02182 2233 ft 4 kts 289°
2026-04-21 06:13 43.35004 77.02214 2233 ft 4 kts 308°
2026-04-21 06:13 43.34986 77.02242 2233 ft 4 kts 313°
2026-04-21 06:13 43.34968 77.02267 2233 ft 4 kts 333°
2026-04-21 06:13 43.34944 77.02271 2227 ft 4 kts 18°
2026-04-21 06:14 43.34928 77.02263 2233 ft 0 kts 17°
2026-04-21 06:22 43.34933 77.02271 2225 ft 2 kts 50°
2026-04-21 06:22 43.34934 77.02300 2233 ft 4 kts 98°
2026-04-21 06:22 43.34909 77.02341 2227 ft 0 kts 140°
2026-04-21 06:23 43.34907 77.02343 2230 ft 2 kts 140°
2026-04-21 06:23 43.34874 77.02381 2223 ft 11 kts 140°
2026-04-21 06:23 43.34804 77.02463 2232 ft 12 kts 139°
2026-04-21 06:23 43.34756 77.02555 2228 ft 12 kts 88°
2026-04-21 06:24 43.34775 77.02598 2233 ft 0 kts 53°
2026-04-21 06:24 43.34789 77.02625 2226 ft 14 kts 54°
2026-04-21 06:24 43.34947 77.02938 2226 ft 70 kts 56°
2026-04-21 06:24 43.35329 77.03712 2227 ft 124 kts 56°
2026-04-21 06:25 43.35906 77.04872 2228 ft 168 kts 56°
2026-04-21 06:25 43.36607 77.06337 2317 ft 191 kts 58°
2026-04-21 06:25 43.37360 77.07862 2665 ft 195 kts 58°
2026-04-21 06:25 43.38124 77.09367 3119 ft 193 kts 58°
2026-04-21 06:26 43.38884 77.10893 3562 ft 194 kts 58°
2026-04-21 06:26 43.39645 77.12439 3940 ft 200 kts 59°
2026-04-21 06:26 43.40478 77.14110 4076 ft 221 kts 58°
2026-04-21 06:26 43.41444 77.15864 4182 ft 241 kts 44°
2026-04-21 06:27 43.42993 77.16917 4350 ft 262 kts
2026-04-21 06:27 43.44817 77.16532 4844 ft 273 kts 338°
2026-04-21 06:27 43.46554 77.15390 5397 ft 279 kts 335°
2026-04-21 06:27 43.48311 77.14226 6075 ft 280 kts 334°
2026-04-21 06:28 43.50081 77.13041 6760 ft 284 kts 335°
2026-04-21 06:28 43.51862 77.11835 7442 ft 284 kts 331°
2026-04-21 06:28 43.53394 77.10127 7934 ft 288 kts 304°
2026-04-21 06:28 43.54203 77.07614 8499 ft 289 kts 279°
2026-04-21 06:29 43.54368 77.04866 9036 ft 290 kts 272°
2026-04-21 06:29 43.54456 77.02079 9595 ft 292 kts 272°
2026-04-21 06:29 43.54554 76.99291 10289 ft 292 kts 272°
2026-04-21 06:29 43.54621 76.96473 10567 ft 304 kts 264°
2026-04-21 06:30 43.53978 76.93639 10712 ft 321 kts 239°
2026-04-21 06:30 43.52692 76.91016 10866 ft 340 kts 236°
2026-04-21 06:30 43.51313 76.88260 11103 ft 358 kts 236°
2026-04-21 06:30 43.49883 76.85396 11690 ft 366 kts 237°
2026-04-21 06:31 43.48435 76.82486 12430 ft 369 kts 237°
2026-04-21 06:31 43.46984 76.79563 13302 ft 371 kts 237°
2026-04-21 06:31 43.45519 76.76607 13970 ft 377 kts 237°
2026-04-21 06:31 43.44034 76.73602 14646 ft 381 kts 237°
2026-04-21 06:32 43.42534 76.70568 15344 ft 386 kts 237°
2026-04-21 06:32 43.41018 76.67503 16023 ft 389 kts 236°
2026-04-21 06:32 43.39503 76.64446 16657 ft 394 kts 236°
2026-04-21 06:32 43.37950 76.61315 17261 ft 398 kts 236°
2026-04-21 06:33 43.36385 76.58162 17908 ft 401 kts 236°
2026-04-21 06:33 43.34802 76.54979 18524 ft 405 kts 236°
2026-04-21 06:33 43.33206 76.51773 19121 ft 408 kts 236°
2026-04-21 06:33 43.31600 76.48549 19731 ft 411 kts 236°
2026-04-21 06:34 43.29975 76.45289 20319 ft 413 kts 236°
2026-04-21 06:34 43.28412 76.41985 20758 ft 414 kts 243°
2026-04-21 06:34 43.27496 76.38226 21097 ft 420 kts 263°
2026-04-21 06:34 43.27407 76.34236 21685 ft 417 kts 271°
2026-04-21 06:35 43.27456 76.30235 22179 ft 421 kts 270°
2026-04-21 06:35 43.27478 76.26198 22681 ft 424 kts 270°
2026-04-21 06:35 43.27483 76.22136 23185 ft 427 kts 269°
2026-04-21 06:35 43.27477 76.18104 23726 ft 428 kts 269°
2026-04-21 06:36 43.27464 76.14005 24156 ft 432 kts 269°
2026-04-21 06:36 43.27457 76.09862 24616 ft 435 kts 269°
2026-04-21 06:36 43.27449 76.05696 25085 ft 437 kts 269°
2026-04-21 06:36 43.27449 76.02916 25368 ft 440 kts 271°
2026-04-21 06:37 43.27806 75.98737 25756 ft 444 kts 283°
2026-04-21 06:37 43.28700 75.94666 26196 ft 446 kts 286°
2026-04-21 06:37 43.29667 75.90596 26570 ft 450 kts 286°
2026-04-21 06:37 43.30624 75.86480 26942 ft 454 kts 286°
2026-04-21 06:38 43.31556 75.82324 27337 ft 456 kts 285°
2026-04-21 06:38 43.32455 75.78190 27725 ft 458 kts 285°
2026-04-21 06:38 43.33356 75.73967 28120 ft 460 kts 284°
2026-04-21 06:38 43.34252 75.69735 28457 ft 463 kts 284°
2026-04-21 06:39 43.35153 75.65472 28769 ft 466 kts 284°
2026-04-21 06:39 43.36062 75.61175 29098 ft 469 kts 284°
2026-04-21 06:39 43.36973 75.56865 29415 ft 470 kts 284°
2026-04-21 06:39 43.37875 75.52536 29683 ft 473 kts 284°
2026-04-21 06:40 43.38715 75.48155 29963 ft 474 kts 283°
2026-04-21 06:40 43.39518 75.43762 30352 ft 473 kts 282°
2026-04-21 06:40 43.40313 75.39375 30814 ft 471 kts 282°
2026-04-21 06:40 43.41110 75.35019 31260 ft 468 kts 282°
2026-04-21 06:41 43.41908 75.30686 31642 ft 467 kts 283°
2026-04-21 06:41 43.42709 75.26358 31910 ft 468 kts 282°
2026-04-21 06:41 43.43513 75.21997 31949 ft 471 kts 282°
2026-04-21 06:42 43.45113 75.13308 31985 ft 465 kts 282°
2026-04-21 06:42 43.46690 75.04697 31990 ft 463 kts 282°
2026-04-21 06:43 43.48245 74.96150 31989 ft 463 kts 282°
2026-04-21 06:43 43.49808 74.87548 31981 ft 463 kts 282°
2026-04-21 06:44 43.51365 74.78923 31986 ft 464 kts 282°
2026-04-21 06:44 43.52915 74.70279 31978 ft 465 kts 282°
2026-04-21 06:45 43.54461 74.61623 31978 ft 465 kts 282°
2026-04-21 06:45 43.56004 74.52942 31982 ft 466 kts 282°
2026-04-21 06:46 43.57534 74.44295 31980 ft 467 kts 282°
2026-04-21 06:46 43.59069 74.35573 31969 ft 468 kts 282°
2026-04-21 06:47 43.60603 74.26815 31966 ft 469 kts 281°
2026-04-21 06:47 43.62134 74.18053 31960 ft 470 kts 281°
2026-04-21 06:48 43.63669 74.09271 31967 ft 471 kts 281°
2026-04-21 06:48 43.65190 74.00512 31959 ft 472 kts 281°
2026-04-21 06:49 43.66714 73.91708 31966 ft 471 kts 281°
2026-04-21 06:49 43.68232 73.82894 31962 ft 471 kts 281°
2026-04-21 06:50 43.69286 73.74012 31956 ft 467 kts 272°
2026-04-21 06:50 43.69187 73.65069 31967 ft 464 kts 264°
2026-04-21 06:51 43.68688 73.56187 31964 ft 463 kts 264°
2026-04-21 06:51 43.68200 73.47335 31964 ft 461 kts 264°
2026-04-21 06:52 43.67729 73.38552 31963 ft 460 kts 265°
2026-04-21 06:52 43.67259 73.29758 31963 ft 458 kts 265°
2026-04-21 06:53 43.66786 73.20993 31963 ft 456 kts 265°
2026-04-21 06:53 43.66303 73.12259 31963 ft 456 kts 265°
2026-04-21 06:54 43.65816 73.03536 31953 ft 454 kts 265°
2026-04-21 06:54 43.65327 72.94895 31955 ft 453 kts 265°
2026-04-21 06:55 43.64829 72.86204 31954 ft 452 kts 265°
2026-04-21 06:55 43.64328 72.77542 31954 ft 452 kts 264°
2026-04-21 06:56 43.63821 72.68956 31954 ft 451 kts 264°
2026-04-21 06:56 43.63307 72.60328 31957 ft 451 kts 264°
2026-04-21 06:57 43.62787 72.51699 31954 ft 451 kts 264°
2026-04-21 06:57 43.62258 72.43060 31954 ft 452 kts 264°
2026-04-21 06:58 43.61722 72.34409 31954 ft 453 kts 264°
2026-04-21 06:58 43.61180 72.25783 31946 ft 453 kts 264°
2026-04-21 06:59 43.60629 72.17108 31949 ft 454 kts 264°
2026-04-21 06:59 43.60071 72.08419 31937 ft 455 kts 264°
2026-04-21 07:00 43.59507 71.99729 31933 ft 455 kts 264°
2026-04-21 07:00 43.58936 71.91044 31949 ft 454 kts 264°
2026-04-21 07:01 43.58359 71.82369 31935 ft 453 kts 264°
2026-04-21 07:01 43.57488 71.69473 31947 ft 452 kts 264°
2026-04-21 07:02 43.56900 71.60863 31947 ft 450 kts 264°
2026-04-21 07:02 43.56305 71.52274 31943 ft 449 kts 264°
2026-04-21 07:03 43.55706 71.43722 31946 ft 447 kts 264°
2026-04-21 07:03 43.55104 71.35210 31946 ft 445 kts 264°
2026-04-21 07:04 43.54498 71.26723 31944 ft 444 kts 264°
2026-04-21 07:04 43.53892 71.18323 31934 ft 442 kts 264°
2026-04-21 07:05 43.53277 71.09898 31927 ft 441 kts 264°
2026-04-21 07:05 43.52657 71.01499 31928 ft 440 kts 264°
2026-04-21 07:06 43.52035 70.93129 31932 ft 439 kts 264°
2026-04-21 07:06 43.51405 70.84751 31926 ft 439 kts 264°
2026-04-21 07:07 43.50763 70.76392 31924 ft 439 kts 264°
2026-04-21 07:07 43.50115 70.68034 31930 ft 439 kts 264°
2026-04-21 07:08 43.49463 70.59728 31923 ft 439 kts 264°
2026-04-21 07:08 43.48801 70.51355 31921 ft 440 kts 264°
2026-04-21 07:09 43.48132 70.42972 31917 ft 440 kts 263°
2026-04-21 07:09 43.47458 70.34600 31912 ft 440 kts 263°
2026-04-21 07:10 43.46781 70.26258 31905 ft 440 kts 263°
2026-04-21 07:10 43.46093 70.17877 31907 ft 440 kts 263°
2026-04-21 07:11 43.45402 70.09497 31899 ft 440 kts 263°
2026-04-21 07:11 43.44702 70.01119 31900 ft 440 kts 263°
2026-04-21 07:12 43.43998 69.92748 31899 ft 440 kts 263°
2026-04-21 07:12 43.43292 69.84437 31894 ft 439 kts 263°
2026-04-21 07:13 43.42579 69.76105 31891 ft 438 kts 263°
2026-04-21 07:13 43.41880 69.67791 31891 ft 437 kts 263°
2026-04-21 07:14 43.41193 69.59484 31888 ft 436 kts 263°
2026-04-21 07:14 43.40499 69.51204 31879 ft 435 kts 263°
2026-04-21 07:15 43.39800 69.42939 31869 ft 434 kts 263°
2026-04-21 07:15 43.39100 69.34747 31863 ft 434 kts 263°
2026-04-21 07:16 43.38393 69.26531 31864 ft 432 kts 263°
2026-04-21 07:16 43.37680 69.18319 31867 ft 432 kts 263°
2026-04-21 07:17 43.36993 69.10130 31857 ft 431 kts 264°
2026-04-21 07:17 43.36325 69.01949 31866 ft 430 kts 264°
2026-04-21 07:18 43.35651 68.93786 31869 ft 430 kts 264°
2026-04-21 07:18 43.34963 68.85622 31859 ft 430 kts 264°
2026-04-21 07:19 43.34275 68.77476 31860 ft 429 kts 264°
2026-04-21 07:19 43.33584 68.69339 31865 ft 429 kts 264°
2026-04-21 07:20 43.32889 68.61244 31861 ft 429 kts 264°
2026-04-21 07:20 43.32096 68.53122 31859 ft 428 kts 261°
2026-04-21 07:21 43.31038 68.45046 31856 ft 429 kts 261°
2026-04-21 07:21 43.30017 68.36960 31860 ft 430 kts 260°
2026-04-21 07:22 43.28605 68.28986 31862 ft 430 kts 257°
2026-04-21 07:22 43.27113 68.21039 31861 ft 430 kts 257°
2026-04-21 07:23 43.25624 68.13095 31864 ft 430 kts 257°
2026-04-21 07:23 43.24148 68.05186 31866 ft 430 kts 257°
2026-04-21 07:24 43.22661 67.97234 31864 ft 430 kts 257°
2026-04-21 07:24 43.21420 67.90643 31867 ft 429 kts 257°
2026-04-21 07:25 43.19934 67.82747 31853 ft 427 kts 257°
2026-04-21 07:25 43.18197 67.73585 31850 ft 426 kts 257°
2026-04-21 07:26 43.16961 67.67052 31857 ft 426 kts 257°
2026-04-21 07:26 43.15467 67.59180 31848 ft 426 kts 257°
2026-04-21 07:27 43.13970 67.51332 31849 ft 425 kts 257°
2026-04-21 07:27 43.12470 67.43502 31850 ft 424 kts 257°
2026-04-21 07:28 43.10956 67.35693 31857 ft 424 kts 257°
2026-04-21 07:28 43.09449 67.27896 31842 ft 424 kts 257°
2026-04-21 07:29 43.07931 67.20104 31860 ft 424 kts 257°
2026-04-21 07:29 43.06419 67.12353 31856 ft 424 kts 257°
2026-04-21 07:30 43.04890 67.04551 31844 ft 424 kts 257°
2026-04-21 07:30 43.03356 66.96764 31856 ft 424 kts 257°
2026-04-21 07:31 43.01821 66.88991 31838 ft 423 kts 257°
2026-04-21 07:31 43.00280 66.81229 31840 ft 423 kts 257°
2026-04-21 07:32 42.98728 66.73467 31839 ft 423 kts 256°
2026-04-21 07:32 42.97165 66.65728 31840 ft 423 kts 256°
2026-04-21 07:33 42.95593 66.57988 31835 ft 423 kts 256°
2026-04-21 07:33 42.94052 66.50286 31852 ft 422 kts 256°
2026-04-21 07:34 42.92512 66.42555 31836 ft 422 kts 256°
2026-04-21 07:34 42.90962 66.34829 31852 ft 422 kts 256°
2026-04-21 07:35 42.89412 66.27108 31846 ft 421 kts 256°
2026-04-21 07:35 42.87851 66.19403 31847 ft 421 kts 256°
2026-04-21 07:36 42.86284 66.11691 31848 ft 422 kts 256°
2026-04-21 07:36 42.84703 66.03995 31835 ft 422 kts 256°
2026-04-21 07:37 42.83082 65.96348 31852 ft 423 kts 255°
2026-04-21 07:37 42.81453 65.88658 31850 ft 422 kts 255°
2026-04-21 07:38 42.79827 65.80968 31854 ft 422 kts 255°
2026-04-21 07:38 42.78196 65.73294 31834 ft 421 kts 255°
2026-04-21 07:39 42.76576 65.65630 31826 ft 420 kts 255°
2026-04-21 07:39 42.74972 65.58024 31822 ft 421 kts 255°
2026-04-21 07:40 42.73349 65.50375 31824 ft 420 kts 255°
2026-04-21 07:40 42.71718 65.42740 31825 ft 420 kts 255°
2026-04-21 07:41 42.70085 65.35101 31822 ft 421 kts 255°
2026-04-21 07:41 42.68446 65.27452 31821 ft 420 kts 255°
2026-04-21 07:42 42.66854 65.19834 31802 ft 418 kts 256°
2026-04-21 07:42 42.65207 65.12221 31825 ft 421 kts 255°
2026-04-21 07:43 42.63522 65.04640 31821 ft 423 kts 255°
2026-04-21 07:43 42.61836 64.96979 31818 ft 424 kts 255°
2026-04-21 07:44 42.60154 64.89290 31817 ft 425 kts 255°
2026-04-21 07:44 42.58469 64.81605 31824 ft 425 kts 254°
2026-04-21 07:45 42.56771 64.73905 31822 ft 425 kts 254°
2026-04-21 07:45 42.55076 64.66219 31824 ft 425 kts 254°
2026-04-21 07:46 42.53371 64.58539 31822 ft 425 kts 254°
2026-04-21 07:46 42.51677 64.50917 31824 ft 424 kts 254°
2026-04-21 07:47 42.49965 64.43259 31823 ft 424 kts 254°
2026-04-21 07:47 42.48248 64.35600 31829 ft 424 kts 254°
2026-04-21 07:48 42.46530 64.27959 31831 ft 424 kts 253°
2026-04-21 07:48 42.44820 64.20365 31834 ft 424 kts 254°
2026-04-21 07:49 42.43122 64.12704 31831 ft 425 kts 254°
2026-04-21 07:49 42.41423 64.05042 31833 ft 425 kts 254°
2026-04-21 07:50 42.39708 63.97376 31829 ft 425 kts 253°
2026-04-21 07:50 42.37946 63.89738 31836 ft 425 kts 253°
2026-04-21 07:51 42.36168 63.82102 31832 ft 426 kts 253°
2026-04-21 07:51 42.34393 63.74451 31835 ft 426 kts 253°
2026-04-21 07:52 42.32608 63.66802 31849 ft 427 kts 253°
2026-04-21 07:52 42.30833 63.59201 31849 ft 427 kts 253°
2026-04-21 07:53 42.29045 63.51562 31828 ft 426 kts 253°
2026-04-21 07:53 42.27242 63.43919 31833 ft 427 kts 252°
2026-04-21 07:54 42.25442 63.36282 31834 ft 426 kts 252°
2026-04-21 07:54 42.23641 63.28670 31833 ft 425 kts 252°
2026-04-21 07:55 42.21832 63.21059 31836 ft 426 kts 252°
2026-04-21 07:55 42.20029 63.13484 31834 ft 427 kts 252°
2026-04-21 07:56 42.18210 63.05876 31838 ft 426 kts 252°
2026-04-21 07:56 42.16382 62.98259 31835 ft 427 kts 252°
2026-04-21 07:57 42.14560 62.90639 31852 ft 427 kts 252°
2026-04-21 07:57 42.12737 62.83027 31852 ft 427 kts 252°
2026-04-21 07:58 42.10904 62.75401 31848 ft 428 kts 251°
2026-04-21 07:58 42.09067 62.67811 31835 ft 428 kts 251°
2026-04-21 07:59 42.07218 62.60188 31848 ft 429 kts 251°
2026-04-21 07:59 42.05358 62.52555 31833 ft 429 kts 251°
2026-04-21 08:00 42.03500 62.44921 31835 ft 428 kts 251°
2026-04-21 08:00 42.01638 62.37298 31852 ft 428 kts 251°
2026-04-21 08:01 41.99776 62.29685 31856 ft 428 kts 251°
2026-04-21 08:02 41.96984 62.18318 31851 ft 427 kts 250°
2026-04-21 08:02 41.95102 62.10728 31857 ft 429 kts 250°
2026-04-21 08:03 41.93214 62.03114 31852 ft 430 kts 250°
2026-04-21 08:03 41.91317 61.95488 31851 ft 430 kts 250°
2026-04-21 08:04 41.89398 61.87918 31846 ft 431 kts 250°
2026-04-21 08:04 41.87522 61.80276 31858 ft 430 kts 250°
2026-04-21 08:05 41.85614 61.72665 31850 ft 430 kts 250°
2026-04-21 08:05 41.83684 61.65065 31851 ft 430 kts 250°
2026-04-21 08:06 41.81751 61.57466 31858 ft 430 kts 250°
2026-04-21 08:06 41.79827 61.49918 31848 ft 431 kts 250°
2026-04-21 08:07 41.77883 61.42327 31851 ft 431 kts 250°
2026-04-21 08:07 41.75936 61.34738 31858 ft 430 kts 250°
2026-04-21 08:08 41.73987 61.27164 31858 ft 430 kts 249°
2026-04-21 08:08 41.72040 61.19592 31867 ft 430 kts 249°
2026-04-21 08:09 41.70082 61.12031 31862 ft 430 kts 249°
2026-04-21 08:09 41.68114 61.04461 31862 ft 430 kts 249°
2026-04-21 08:10 41.66144 60.96901 31863 ft 430 kts 249°
2026-04-21 08:10 41.64181 60.89395 31858 ft 431 kts 249°
2026-04-21 08:11 41.62199 60.81831 31865 ft 430 kts 249°
2026-04-21 08:11 41.60215 60.74278 31864 ft 431 kts 249°
2026-04-21 08:12 41.58222 60.66720 31866 ft 431 kts 249°
2026-04-21 08:12 41.56339 60.59101 31863 ft 433 kts 251°
2026-04-21 08:13 41.54601 60.51426 31865 ft 431 kts 251°
2026-04-21 08:13 41.52849 60.43777 31858 ft 431 kts 250°
2026-04-21 08:14 41.51071 60.36171 31869 ft 431 kts 250°
2026-04-21 08:14 41.49275 60.28525 31857 ft 432 kts 250°
2026-04-21 08:15 41.47784 60.22181 31860 ft 430 kts 250°
2026-04-21 08:15 41.45976 60.14587 31863 ft 429 kts 250°
2026-04-21 08:16 41.44140 60.07020 31874 ft 428 kts 250°
2026-04-21 08:16 41.42306 59.99462 31872 ft 429 kts 250°
2026-04-21 08:17 41.40466 59.91896 31873 ft 429 kts 250°
2026-04-21 08:17 41.38615 59.84307 31882 ft 431 kts 249°
2026-04-21 08:18 41.36758 59.76702 31879 ft 432 kts 249°
2026-04-21 08:18 41.34909 59.69077 31880 ft 434 kts 251°
2026-04-21 08:19 41.33740 59.61212 31883 ft 439 kts 260°
2026-04-21 08:19 41.33035 59.53136 31888 ft 439 kts 259°
2026-04-21 08:20 41.32284 59.45067 31891 ft 440 kts 259°
2026-04-21 08:20 41.31520 59.36986 31890 ft 440 kts 259°
2026-04-21 08:21 41.30750 59.28902 31888 ft 441 kts 259°
2026-04-21 08:21 41.29978 59.20810 31885 ft 441 kts 259°
2026-04-21 08:22 41.29203 59.12753 31893 ft 441 kts 259°
2026-04-21 08:22 41.28415 59.04650 31886 ft 442 kts 259°
2026-04-21 08:23 41.27620 58.96539 31888 ft 442 kts 259°
2026-04-21 08:23 41.26820 58.88426 31887 ft 443 kts 259°
2026-04-21 08:24 41.26013 58.80302 31886 ft 443 kts 259°
2026-04-21 08:24 41.25199 58.72173 31890 ft 444 kts 259°
2026-04-21 08:25 41.24381 58.64031 31890 ft 445 kts 259°
2026-04-21 08:25 41.23557 58.55932 31893 ft 446 kts 259°
2026-04-21 08:26 41.22721 58.47759 31888 ft 446 kts 258°
2026-04-21 08:26 41.21879 58.39583 31888 ft 447 kts 258°
2026-04-21 08:27 41.21237 58.33383 31890 ft 447 kts 258°
2026-04-21 08:27 41.20386 58.25215 31889 ft 446 kts 258°
2026-04-21 08:28 41.19528 58.17051 31891 ft 447 kts 258°
2026-04-21 08:28 41.18666 58.08879 31890 ft 447 kts 258°
2026-04-21 08:29 41.17792 58.00710 31897 ft 447 kts 258°
2026-04-21 08:29 41.16911 57.92538 31893 ft 448 kts 258°
2026-04-21 08:30 41.16023 57.84356 31901 ft 448 kts 258°
2026-04-21 08:30 41.15133 57.76168 31899 ft 449 kts 258°
2026-04-21 08:31 41.14232 57.67970 31899 ft 450 kts 258°
2026-04-21 08:31 41.13330 57.59815 31897 ft 450 kts 258°
2026-04-21 08:32 41.12418 57.51595 31900 ft 449 kts 258°
2026-04-21 08:32 41.11502 57.43395 31896 ft 449 kts 258°
2026-04-21 08:33 41.10577 57.35208 31900 ft 449 kts 258°
2026-04-21 08:33 41.09649 57.27032 31899 ft 448 kts 258°
2026-04-21 08:34 41.08715 57.18850 31907 ft 448 kts 258°
2026-04-21 08:34 41.07781 57.10726 31909 ft 448 kts 258°
2026-04-21 08:35 41.06836 57.02556 31906 ft 448 kts 257°
2026-04-21 08:35 41.05887 56.94391 31908 ft 448 kts 258°
2026-04-21 08:36 41.04932 56.86239 31905 ft 448 kts 257°
2026-04-21 08:36 41.03969 56.78081 31908 ft 448 kts 257°
2026-04-21 08:37 41.03001 56.69919 31912 ft 448 kts 257°
2026-04-21 08:37 41.02027 56.61747 31906 ft 449 kts 257°
2026-04-21 08:38 41.01054 56.53637 31910 ft 449 kts 258°
2026-04-21 08:38 41.00582 56.45358 31912 ft 453 kts 265°
2026-04-21 08:39 41.00531 56.37018 31913 ft 453 kts 265°
2026-04-21 08:39 41.00445 56.28685 31905 ft 453 kts 265°
2026-04-21 08:40 41.00339 56.20363 31907 ft 452 kts 265°
2026-04-21 08:40 41.00224 56.12025 31916 ft 452 kts 265°
2026-04-21 08:41 41.00106 56.03755 31922 ft 452 kts 265°
2026-04-21 08:41 40.99981 55.95433 31913 ft 452 kts 265°
2026-04-21 08:42 40.99851 55.87115 31921 ft 452 kts 265°
2026-04-21 08:42 40.99718 55.78786 31918 ft 453 kts 265°
2026-04-21 08:43 40.99582 55.70435 31920 ft 454 kts 265°
2026-04-21 08:43 40.99447 55.62078 31920 ft 454 kts 264°
2026-04-21 08:44 40.99306 55.53710 31919 ft 453 kts 264°
2026-04-21 08:44 40.99160 55.45416 31912 ft 453 kts 264°
2026-04-21 08:45 40.99008 55.37069 31914 ft 453 kts 264°
2026-04-21 08:45 40.98847 55.28740 31922 ft 453 kts 264°
2026-04-21 08:46 40.98682 55.20413 31920 ft 453 kts 264°
2026-04-21 08:46 40.98513 55.12134 31909 ft 453 kts 264°
2026-04-21 08:47 40.98335 55.03808 31920 ft 453 kts 264°
2026-04-21 08:47 40.98154 54.95468 31923 ft 453 kts 264°
2026-04-21 08:48 40.97964 54.87131 31926 ft 453 kts 264°
2026-04-21 08:48 40.97763 54.78785 31926 ft 453 kts 264°
2026-04-21 08:49 40.97556 54.70502 31928 ft 453 kts 264°
2026-04-21 08:49 40.97343 54.62167 31922 ft 453 kts 264°
2026-04-21 08:50 40.97126 54.53841 31929 ft 452 kts 264°
2026-04-21 08:50 40.96902 54.45514 31927 ft 452 kts 264°
2026-04-21 08:51 40.96665 54.37207 31946 ft 450 kts 264°
2026-04-21 08:51 40.96465 54.28900 31929 ft 452 kts 264°
2026-04-21 08:52 40.96211 54.20625 31924 ft 453 kts 263°
2026-04-21 08:52 40.95950 54.12281 31923 ft 454 kts 264°
2026-04-21 08:53 40.95691 54.03926 31917 ft 455 kts 264°
2026-04-21 08:53 40.95431 53.95560 31916 ft 454 kts 263°
2026-04-21 08:54 40.95166 53.87215 31917 ft 454 kts 263°
2026-04-21 08:54 40.94893 53.78873 31911 ft 453 kts 263°
2026-04-21 08:55 40.94582 53.70549 31911 ft 451 kts 263°
2026-04-21 08:55 40.94336 53.62262 31912 ft 452 kts 264°
2026-04-21 08:56 40.94053 53.53950 31915 ft 452 kts 263°
2026-04-21 08:56 40.93752 53.45632 31920 ft 453 kts 263°
2026-04-21 08:57 40.93446 53.37304 31912 ft 453 kts 263°
2026-04-21 08:57 40.93134 53.28979 31923 ft 454 kts 263°
2026-04-21 08:58 40.92823 53.20635 31911 ft 455 kts 263°
2026-04-21 08:58 40.92504 53.12291 31913 ft 455 kts 263°
2026-04-21 08:59 40.92166 53.03938 31918 ft 455 kts 263°
2026-04-21 08:59 40.91816 52.95587 31921 ft 455 kts 263°
2026-04-21 09:00 40.91461 52.87245 31929 ft 454 kts 263°
2026-04-21 09:00 40.91163 52.80317 31929 ft 454 kts 263°
2026-04-21 09:01 40.90742 52.70619 31925 ft 454 kts 263°
2026-04-21 09:01 40.90360 52.62277 31927 ft 454 kts 261°
2026-04-21 09:02 40.89546 52.55466 31932 ft 449 kts 255°
2026-04-21 09:02 40.88236 52.47384 31936 ft 450 kts 255°
2026-04-21 09:03 40.86302 52.35222 31938 ft 451 kts 255°
2026-04-21 09:03 40.85019 52.27106 31933 ft 451 kts 255°
2026-04-21 09:04 40.83732 52.18995 31932 ft 451 kts 255°
2026-04-21 09:04 40.82446 52.10950 31930 ft 451 kts 255°
2026-04-21 09:05 40.81148 52.02860 31944 ft 450 kts 255°
2026-04-21 09:05 40.79843 51.94773 31945 ft 450 kts 255°
2026-04-21 09:06 40.78534 51.86687 31946 ft 450 kts 255°
2026-04-21 09:06 40.77217 51.78597 31952 ft 451 kts 255°
2026-04-21 09:07 40.75894 51.70493 31954 ft 451 kts 254°
2026-04-21 09:07 40.74565 51.62407 31965 ft 451 kts 254°
2026-04-21 09:08 40.73239 51.54370 31963 ft 451 kts 254°
2026-04-21 09:08 40.72283 51.46157 31958 ft 456 kts 263°
2026-04-21 09:09 40.71997 51.37789 31951 ft 458 kts 263°
2026-04-21 09:09 40.71681 51.29382 31968 ft 460 kts 263°
2026-04-21 09:10 40.71340 51.20934 31972 ft 463 kts 262°
2026-04-21 09:10 40.70988 51.12424 31975 ft 465 kts 262°
2026-04-21 09:11 40.70626 51.03897 31976 ft 466 kts 262°
2026-04-21 09:11 40.70262 50.95436 31981 ft 465 kts 262°
2026-04-21 09:12 40.69892 50.86946 31982 ft 463 kts 262°
2026-04-21 09:12 40.69517 50.78481 31982 ft 462 kts 262°
2026-04-21 09:13 40.69135 50.70041 31991 ft 461 kts 262°
2026-04-21 09:13 40.68748 50.61618 31987 ft 460 kts 262°
2026-04-21 09:14 40.68355 50.53187 31993 ft 460 kts 262°
2026-04-21 09:14 40.68252 50.44780 31991 ft 465 kts 269°
2026-04-21 09:15 40.69218 50.36306 31993 ft 472 kts 278°
2026-04-21 09:15 40.70858 50.27921 31990 ft 472 kts 279°
2026-04-21 09:16 40.72535 50.19553 31991 ft 471 kts 279°
2026-04-21 09:16 40.74148 50.11166 32014 ft 472 kts 279°
2026-04-21 09:17 40.75687 50.02753 31988 ft 472 kts 278°
2026-04-21 09:17 40.77290 49.94357 32012 ft 473 kts 279°
2026-04-21 09:18 40.78921 49.85954 32004 ft 472 kts 279°
2026-04-21 09:18 40.80491 49.77624 31990 ft 470 kts 278°
2026-04-21 09:19 40.82035 49.69210 32003 ft 472 kts 278°
2026-04-21 09:19 40.83610 49.60757 32006 ft 475 kts 278°
2026-04-21 09:20 40.85190 49.52268 32002 ft 476 kts 278°
2026-04-21 09:20 40.86755 49.43803 31999 ft 476 kts 278°
2026-04-21 09:21 40.88320 49.35286 32000 ft 476 kts 278°
2026-04-21 09:21 40.89818 49.26779 31998 ft 474 kts 277°
2026-04-21 09:22 40.91241 49.18288 32007 ft 472 kts 277°
2026-04-21 09:22 40.92660 49.09803 32007 ft 473 kts 277°
2026-04-21 09:23 40.94084 49.01302 32009 ft 474 kts 277°
2026-04-21 09:23 40.95501 48.92838 32009 ft 474 kts 277°
2026-04-21 09:24 40.96920 48.84314 32009 ft 474 kts 277°
2026-04-21 09:24 40.98333 48.75784 32012 ft 474 kts 277°
2026-04-21 09:25 40.99739 48.67256 32021 ft 474 kts 277°
2026-04-21 09:25 41.01140 48.58716 32017 ft 475 kts 277°
2026-04-21 09:26 41.02535 48.50169 32024 ft 474 kts 277°
2026-04-21 09:26 41.03921 48.41631 32027 ft 474 kts 277°
2026-04-21 09:27 41.05294 48.33145 32031 ft 473 kts 277°
2026-04-21 09:27 41.06665 48.24617 32023 ft 473 kts 277°
2026-04-21 09:28 41.08028 48.16104 32032 ft 471 kts 277°
2026-04-21 09:28 41.09383 48.07580 32030 ft 473 kts 277°
2026-04-21 09:29 41.10739 47.99030 32037 ft 475 kts 277°
2026-04-21 09:29 41.12092 47.90457 32026 ft 476 kts 277°
2026-04-21 09:30 41.13440 47.81900 32036 ft 477 kts 277°
2026-04-21 09:30 41.14794 47.73283 32018 ft 476 kts 277°
2026-04-21 09:31 41.16134 47.64683 32023 ft 475 kts 277°
2026-04-21 09:31 41.17464 47.56093 32027 ft 475 kts 277°
2026-04-21 09:32 41.18790 47.47494 32027 ft 475 kts 277°
2026-04-21 09:32 41.20108 47.38906 32028 ft 474 kts 277°
2026-04-21 09:33 41.21412 47.30378 32035 ft 474 kts 277°
2026-04-21 09:33 41.22718 47.21784 32043 ft 473 kts 277°
2026-04-21 09:34 41.24015 47.13197 32042 ft 473 kts 277°
2026-04-21 09:34 41.25300 47.04634 32034 ft 472 kts 277°
2026-04-21 09:35 41.26580 46.96071 32044 ft 472 kts 277°
2026-04-21 09:35 41.27853 46.87508 32051 ft 472 kts 277°
2026-04-21 09:36 41.29111 46.79009 32049 ft 471 kts 277°
2026-04-21 09:36 41.30357 46.70442 32059 ft 471 kts 276°
2026-04-21 09:37 41.31555 46.61862 32051 ft 472 kts 276°
2026-04-21 09:37 41.32742 46.53274 32062 ft 472 kts 276°
2026-04-21 09:38 41.33928 46.44676 32053 ft 473 kts 276°
2026-04-21 09:38 41.35116 46.36058 32050 ft 473 kts 276°
2026-04-21 09:39 41.36298 46.27427 32045 ft 473 kts 276°
2026-04-21 09:39 41.37465 46.18855 32037 ft 473 kts 276°
2026-04-21 09:40 41.38632 46.10221 32039 ft 473 kts 276°
2026-04-21 09:40 41.39792 46.01590 32027 ft 473 kts 276°
2026-04-21 09:41 41.40946 45.92959 32016 ft 473 kts 276°
2026-04-21 09:41 41.42093 45.84342 32017 ft 472 kts 277°
2026-04-21 09:42 41.43225 45.75771 32006 ft 472 kts 276°
2026-04-21 09:42 41.44356 45.67158 32010 ft 472 kts 276°
2026-04-21 09:43 41.45481 45.58526 31996 ft 472 kts 276°
2026-04-21 09:43 41.46603 45.49888 32006 ft 473 kts 276°
2026-04-21 09:44 41.47719 45.41233 31997 ft 474 kts 276°
2026-04-21 09:44 41.48337 45.32589 31992 ft 469 kts 266°
2026-04-21 09:45 41.48178 45.23905 31998 ft 468 kts 265°
2026-04-21 09:45 41.48014 45.15208 31996 ft 469 kts 266°
2026-04-21 09:46 41.47870 45.06503 31991 ft 469 kts 266°
2026-04-21 09:46 41.47734 44.97800 31993 ft 469 kts 266°
2026-04-21 09:47 41.47593 44.89099 31986 ft 469 kts 266°
2026-04-21 09:47 41.47445 44.80399 31987 ft 469 kts 266°
2026-04-21 09:48 41.47288 44.71689 31993 ft 470 kts 266°
2026-04-21 09:48 41.47126 44.62981 31993 ft 470 kts 266°
2026-04-21 09:49 41.46985 44.55725 31990 ft 471 kts 266°
2026-04-21 09:49 41.46780 44.45570 31980 ft 472 kts 266°
2026-04-21 09:50 41.46659 44.39720 31978 ft 472 kts 265°
2026-04-21 09:50 41.46437 44.29490 31967 ft 472 kts 265°
2026-04-21 09:51 41.46244 44.20794 31963 ft 472 kts 265°
2026-04-21 09:51 41.46044 44.12044 31964 ft 472 kts 265°
2026-04-21 09:52 41.45832 44.03292 31955 ft 472 kts 265°
2026-04-21 09:52 41.45619 43.94533 31954 ft 472 kts 265°
2026-04-21 09:53 41.45397 43.85776 31953 ft 472 kts 265°
2026-04-21 09:53 41.45169 43.77035 31953 ft 472 kts 265°
2026-04-21 09:54 41.44934 43.68319 31959 ft 472 kts 265°
2026-04-21 09:54 41.44691 43.59570 31950 ft 472 kts 265°
2026-04-21 09:55 41.44443 43.50829 31954 ft 472 kts 265°
2026-04-21 09:55 41.44188 43.42078 31950 ft 471 kts 265°
2026-04-21 09:56 41.43928 43.33352 31957 ft 470 kts 265°
2026-04-21 09:56 41.43660 43.24640 31948 ft 470 kts 265°
2026-04-21 09:57 41.43388 43.15999 31956 ft 469 kts 265°
2026-04-21 09:57 41.43111 43.07316 31953 ft 469 kts 265°
2026-04-21 09:58 41.42814 42.98623 31957 ft 468 kts 264°
2026-04-21 09:58 41.41915 42.90049 31959 ft 467 kts 259°
2026-04-21 09:59 41.40841 42.81557 31960 ft 468 kts 259°
2026-04-21 09:59 41.39778 42.73008 31966 ft 468 kts 259°
2026-04-21 10:00 41.38725 42.64459 31961 ft 467 kts 259°
2026-04-21 10:00 41.37671 42.55911 31962 ft 467 kts 259°
2026-04-21 10:01 41.36613 42.47388 31962 ft 467 kts 259°
2026-04-21 10:01 41.35551 42.38902 31966 ft 467 kts 259°
2026-04-21 10:02 41.33941 42.26143 31975 ft 466 kts 259°
2026-04-21 10:03 41.32863 42.17643 31982 ft 466 kts 259°
2026-04-21 10:03 41.31778 42.09138 31982 ft 466 kts 259°
2026-04-21 10:04 41.30686 42.00633 31994 ft 466 kts 259°
2026-04-21 10:04 41.29588 41.92190 31986 ft 464 kts 259°
2026-04-21 10:05 41.28472 41.83731 31990 ft 465 kts 259°
2026-04-21 10:05 41.27340 41.75254 31988 ft 466 kts 259°
2026-04-21 10:06 41.26204 41.66774 32004 ft 465 kts 259°
2026-04-21 10:06 41.25067 41.58300 31992 ft 465 kts 259°
2026-04-21 10:07 41.23922 41.49831 31982 ft 465 kts 259°
2026-04-21 10:07 41.22771 41.41371 31992 ft 466 kts 259°
2026-04-21 10:08 41.21620 41.32959 31990 ft 465 kts 259°
2026-04-21 10:08 41.20456 41.24491 31986 ft 465 kts 259°
2026-04-21 10:09 41.19287 41.16047 31987 ft 465 kts 259°
2026-04-21 10:09 41.18114 41.07614 31994 ft 464 kts 259°
2026-04-21 10:10 41.16938 40.99204 31985 ft 464 kts 259°
2026-04-21 10:10 41.15753 40.90783 31989 ft 464 kts 259°
2026-04-21 10:11 41.14564 40.82375 31995 ft 464 kts 259°
2026-04-21 10:11 41.13376 40.74020 31991 ft 464 kts 259°
2026-04-21 10:12 41.12170 40.65597 31986 ft 464 kts 259°
2026-04-21 10:12 41.10962 40.57196 31986 ft 464 kts 259°
2026-04-21 10:13 41.09749 40.48798 31990 ft 464 kts 259°
2026-04-21 10:13 41.08528 40.40393 31993 ft 464 kts 259°
2026-04-21 10:14 41.07300 40.31986 31993 ft 464 kts 259°
2026-04-21 10:14 41.06075 40.23644 31993 ft 464 kts 259°
2026-04-21 10:15 41.04834 40.15241 31997 ft 464 kts 259°
2026-04-21 10:15 41.03587 40.06844 31989 ft 464 kts 259°
2026-04-21 10:16 41.02337 39.98463 31986 ft 464 kts 259°
2026-04-21 10:16 41.01084 39.90096 31992 ft 463 kts 259°
2026-04-21 10:17 40.99698 39.81778 31985 ft 463 kts 254°
2026-04-21 10:17 40.97330 39.73854 31985 ft 465 kts 244°
2026-04-21 10:18 40.94318 39.66293 31987 ft 464 kts 243°
2026-04-21 10:18 40.91320 39.58781 31996 ft 465 kts 244°
2026-04-21 10:19 40.88318 39.51211 32002 ft 464 kts 244°
2026-04-21 10:19 40.85321 39.43641 31981 ft 465 kts 244°
2026-04-21 10:20 40.82319 39.36069 31994 ft 466 kts 244°
2026-04-21 10:20 40.79305 39.28488 31987 ft 465 kts 244°
2026-04-21 10:21 40.76292 39.20937 32004 ft 465 kts 244°
2026-04-21 10:21 40.73276 39.13393 31984 ft 464 kts 244°
2026-04-21 10:22 40.70275 39.05906 31983 ft 465 kts 244°
2026-04-21 10:22 40.67254 38.98382 31979 ft 464 kts 244°
2026-04-21 10:23 40.64230 38.90873 31996 ft 464 kts 244°
2026-04-21 10:23 40.61185 38.83359 31990 ft 465 kts 243°
2026-04-21 10:24 40.58124 38.75840 31984 ft 466 kts 243°
2026-04-21 10:24 40.55053 38.68303 31984 ft 466 kts 243°
2026-04-21 10:25 40.51985 38.60787 31990 ft 467 kts 243°
2026-04-21 10:25 40.48883 38.53293 31983 ft 467 kts 243°
2026-04-21 10:26 40.45692 38.45851 31974 ft 467 kts 242°
2026-04-21 10:26 40.42526 38.38474 31976 ft 466 kts 242°
2026-04-21 10:27 40.39349 38.31049 31980 ft 467 kts 243°
2026-04-21 10:27 40.36221 38.23585 31986 ft 466 kts 244°
2026-04-21 10:28 40.33217 38.16045 31986 ft 467 kts 244°
2026-04-21 10:28 40.30114 38.08546 31991 ft 468 kts 243°
2026-04-21 10:29 40.26932 38.01106 31980 ft 468 kts 243°
2026-04-21 10:29 40.23747 37.93653 31993 ft 468 kts 243°
2026-04-21 10:30 40.20577 37.86211 32001 ft 468 kts 243°
2026-04-21 10:30 40.17405 37.78771 32001 ft 469 kts 243°
2026-04-21 10:31 40.14217 37.71322 32004 ft 468 kts 243°
2026-04-21 10:31 40.11053 37.63940 32007 ft 468 kts 243°
2026-04-21 10:32 40.07864 37.56522 32017 ft 468 kts 243°
2026-04-21 10:32 40.04686 37.49095 32015 ft 468 kts 243°
2026-04-21 10:33 40.01518 37.41680 32026 ft 468 kts 243°
2026-04-21 10:33 39.98334 37.34253 32018 ft 468 kts 243°
2026-04-21 10:34 39.95150 37.26838 32031 ft 468 kts 243°
2026-04-21 10:34 39.91959 37.19432 32034 ft 469 kts 243°
2026-04-21 10:35 39.88772 37.12054 32039 ft 470 kts 243°
2026-04-21 10:35 39.85566 37.04646 32040 ft 470 kts 243°
2026-04-21 10:36 39.82897 36.98491 32044 ft 470 kts 243°
2026-04-21 10:36 39.79400 36.91290 32044 ft 474 kts 233°
2026-04-21 10:37 39.73844 36.84345 32044 ft 481 kts 219°
2026-04-21 10:37 39.69284 36.80095 32053 ft 482 kts 219°
2026-04-21 10:38 39.63808 36.75035 32048 ft 482 kts 219°
2026-04-21 10:38 39.58391 36.69983 32044 ft 483 kts 219°
2026-04-21 10:39 39.52947 36.64880 32033 ft 483 kts 219°
2026-04-21 10:39 39.47505 36.59774 32038 ft 483 kts 219°
2026-04-21 10:40 39.42060 36.54680 32033 ft 483 kts 219°
2026-04-21 10:40 39.36603 36.49587 32036 ft 483 kts 219°
2026-04-21 10:41 39.31137 36.44495 32026 ft 484 kts 219°
2026-04-21 10:41 39.25677 36.39421 32029 ft 483 kts 219°
2026-04-21 10:42 39.20255 36.34390 32023 ft 483 kts 219°
2026-04-21 10:42 39.14802 36.29342 32019 ft 482 kts 219°
2026-04-21 10:43 39.09344 36.24298 32019 ft 482 kts 219°
2026-04-21 10:43 39.03885 36.19263 32020 ft 482 kts 219°
2026-04-21 10:44 38.98425 36.14236 32020 ft 483 kts 219°
2026-04-21 10:44 38.92957 36.09210 32017 ft 483 kts 219°
2026-04-21 10:45 38.87519 36.04226 32013 ft 483 kts 219°
2026-04-21 10:45 38.82045 35.99215 32016 ft 483 kts 219°
2026-04-21 10:46 38.76569 35.94212 32020 ft 483 kts 219°
2026-04-21 10:46 38.71082 35.89212 32029 ft 484 kts 219°
2026-04-21 10:47 38.65578 35.84202 32016 ft 485 kts 219°
2026-04-21 10:47 38.60077 35.79207 32024 ft 485 kts 219°
2026-04-21 10:48 38.54573 35.74219 32019 ft 485 kts 218°
2026-04-21 10:48 38.49095 35.69263 32016 ft 485 kts 218°
2026-04-21 10:49 38.43591 35.64290 32019 ft 484 kts 218°
2026-04-21 10:49 38.38092 35.59332 32019 ft 484 kts 218°
2026-04-21 10:50 38.32581 35.54373 32017 ft 484 kts 218°
2026-04-21 10:50 38.27101 35.49460 32013 ft 484 kts 218°
2026-04-21 10:51 38.21580 35.44525 32009 ft 485 kts 218°
2026-04-21 10:51 38.16057 35.39597 32023 ft 485 kts 218°
2026-04-21 10:52 38.10520 35.34663 32001 ft 486 kts 218°
2026-04-21 10:52 38.04983 35.29739 32017 ft 486 kts 218°
2026-04-21 10:53 37.99441 35.24817 32011 ft 486 kts 218°
2026-04-21 10:53 37.93893 35.19900 32015 ft 486 kts 218°
2026-04-21 10:54 37.88340 35.14988 32007 ft 487 kts 218°
2026-04-21 10:54 37.82776 35.10074 32002 ft 487 kts 218°
2026-04-21 10:55 37.77210 35.05170 31999 ft 487 kts 218°
2026-04-21 10:55 37.71672 35.00298 31987 ft 487 kts 218°
2026-04-21 10:56 37.66102 34.95407 32007 ft 487 kts 218°
2026-04-21 10:56 37.60535 34.90531 32000 ft 487 kts 218°
2026-04-21 10:57 37.54972 34.85664 32001 ft 487 kts 218°
2026-04-21 10:57 37.49431 34.80823 31997 ft 487 kts 218°
2026-04-21 10:58 37.43846 34.75956 31989 ft 488 kts 218°
2026-04-21 10:58 37.38253 34.71093 31988 ft 488 kts 218°
2026-04-21 10:59 37.32659 34.66235 31985 ft 489 kts 218°
2026-04-21 10:59 37.27058 34.61381 31988 ft 489 kts 218°
2026-04-21 11:00 37.21486 34.56560 31975 ft 489 kts 218°
2026-04-21 11:00 37.15882 34.51719 31971 ft 488 kts 218°
2026-04-21 11:01 37.10290 34.46903 31980 ft 488 kts 218°
2026-04-21 11:01 37.04690 34.42081 31979 ft 488 kts 218°
2026-04-21 11:02 36.96281 34.34864 31978 ft 489 kts 218°
2026-04-21 11:02 36.90652 34.30043 32202 ft 492 kts 218°
2026-04-21 11:03 36.87831 34.27630 32644 ft 490 kts 218°
2026-04-21 11:03 36.85019 34.25228 33015 ft 490 kts 218°
2026-04-21 11:03 36.79391 34.20426 32974 ft 487 kts 218°
2026-04-21 11:04 36.73815 34.15673 32972 ft 485 kts 218°
2026-04-21 11:04 36.68275 34.10961 32987 ft 485 kts 218°
2026-04-21 11:05 36.62694 34.06227 32985 ft 485 kts 218°
2026-04-21 11:05 36.57103 34.01499 32987 ft 486 kts 218°
2026-04-21 11:06 36.51496 33.96762 32984 ft 487 kts 218°
2026-04-21 11:06 36.45916 33.92054 32980 ft 487 kts 218°
2026-04-21 11:07 36.40306 33.87329 32997 ft 487 kts 218°
2026-04-21 11:07 36.34681 33.82598 32990 ft 487 kts 218°
2026-04-21 11:08 36.28744 33.78608 32995 ft 494 kts 197°
2026-04-21 11:08 36.25305 33.78170 32998 ft 502 kts 179°
2026-04-21 11:08 36.21850 33.78904 32978 ft 508 kts 164°
2026-04-21 11:09 36.18634 33.80745 33000 ft 510 kts 149°
2026-04-21 11:09 36.15655 33.83133 33004 ft 512 kts 148°
2026-04-21 11:09 36.09674 33.87893 32999 ft 515 kts 149°
2026-04-21 11:10 36.03558 33.92564 32995 ft 518 kts 150°
2026-04-21 11:10 35.97398 33.97212 32979 ft 519 kts 150°
2026-04-21 11:11 35.94217 33.99268 32984 ft 515 kts 161°
2026-04-21 11:11 35.90796 34.00486 33002 ft 510 kts 172°
2026-04-21 11:11 35.83786 34.00642 33000 ft 500 kts 191°
2026-04-21 11:12 35.76934 33.99470 32988 ft 501 kts 191°
2026-04-21 11:12 35.70023 33.98348 32997 ft 501 kts 191°
2026-04-21 11:13 35.63090 33.97289 32989 ft 502 kts 190°
2026-04-21 11:13 35.56140 33.96252 32980 ft 502 kts 190°
2026-04-21 11:14 35.49258 33.95227 32996 ft 501 kts 191°
2026-04-21 11:14 35.42328 33.94192 33001 ft 501 kts 191°
2026-04-21 11:15 35.35412 33.93161 32986 ft 500 kts 191°
2026-04-21 11:15 35.28498 33.92133 32979 ft 499 kts 191°
2026-04-21 11:16 35.21607 33.91109 32987 ft 498 kts 191°
2026-04-21 11:16 35.14728 33.90087 32998 ft 497 kts 191°
2026-04-21 11:17 35.07890 33.89076 32981 ft 497 kts 191°
2026-04-21 11:17 35.01019 33.88058 32985 ft 497 kts 192°
2026-04-21 11:18 34.94155 33.87043 32998 ft 496 kts 192°
2026-04-21 11:18 34.87299 33.86032 32981 ft 496 kts 192°
2026-04-21 11:19 34.80448 33.85026 32995 ft 496 kts 192°
2026-04-21 11:19 34.73601 33.84017 32981 ft 495 kts 192°
2026-04-21 11:20 34.66761 33.83014 32991 ft 495 kts 192°
2026-04-21 11:20 34.59972 33.82021 32987 ft 494 kts 193°
2026-04-21 11:21 34.53143 33.81022 32996 ft 493 kts 193°
2026-04-21 11:21 34.46262 33.80367 33002 ft 499 kts 185°
2026-04-21 11:22 34.39299 33.80902 33010 ft 501 kts 181°
2026-04-21 11:22 34.32379 33.81514 33001 ft 501 kts 182°
2026-04-21 11:23 34.25417 33.82077 33000 ft 501 kts 182°
2026-04-21 11:23 34.18447 33.82611 33000 ft 500 kts 182°
2026-04-21 11:24 34.12674 33.83054 33002 ft 500 kts 182°
2026-04-21 11:24 34.04597 33.83677 33000 ft 500 kts 182°
2026-04-21 11:25 33.98777 33.84127 33001 ft 500 kts 182°
2026-04-21 11:25 33.91825 33.84667 32999 ft 500 kts 182°
2026-04-21 11:26 33.84912 33.85205 33001 ft 501 kts 182°
2026-04-21 11:26 33.77960 33.85744 33009 ft 501 kts 182°
2026-04-21 11:27 33.71007 33.86282 33009 ft 500 kts 182°
2026-04-21 11:27 33.64034 33.86819 32391 ft 510 kts 182°
2026-04-21 11:28 33.60469 33.87089 31524 ft 511 kts 182°
2026-04-21 11:28 33.56966 33.87364 30579 ft 499 kts 182°
2026-04-21 11:28 33.53507 33.87638 29974 ft 494 kts 182°
2026-04-21 11:28 33.50086 33.87905 29361 ft 490 kts 182°
2026-04-21 11:29 33.46702 33.88166 28757 ft 485 kts 182°
2026-04-21 11:29 33.43389 33.88420 28179 ft 481 kts 182°
2026-04-21 11:29 33.40062 33.88675 27602 ft 477 kts 181°
2026-04-21 11:29 33.36764 33.88927 27023 ft 473 kts 181°
2026-04-21 11:30 33.33494 33.89178 26454 ft 469 kts 181°
2026-04-21 11:30 33.30251 33.89425 25887 ft 465 kts 181°
2026-04-21 11:30 33.27036 33.89671 25335 ft 461 kts 181°
2026-04-21 11:30 33.23851 33.89915 24795 ft 457 kts 181°
2026-04-21 11:31 33.20686 33.90157 24241 ft 453 kts 180°
2026-04-21 11:31 33.17551 33.90394 23701 ft 449 kts 180°
2026-04-21 11:31 33.14450 33.90625 23159 ft 445 kts 180°
2026-04-21 11:31 33.11373 33.90853 22632 ft 441 kts 181°
2026-04-21 11:32 33.08322 33.91077 22102 ft 437 kts 180°
2026-04-21 11:32 33.05291 33.91300 21585 ft 434 kts 180°
2026-04-21 11:32 33.02324 33.91519 21066 ft 430 kts 180°
2026-04-21 11:32 32.99342 33.91738 20568 ft 427 kts 180°
2026-04-21 11:33 32.96382 33.91957 20056 ft 424 kts 180°
2026-04-21 11:33 32.93443 33.92173 19550 ft 421 kts 180°
2026-04-21 11:33 32.90530 33.92387 19033 ft 418 kts 180°
2026-04-21 11:33 32.87636 33.92599 18522 ft 415 kts 180°
2026-04-21 11:34 32.84757 33.92811 17992 ft 413 kts 180°
2026-04-21 11:34 32.81932 33.93018 17493 ft 410 kts 180°
2026-04-21 11:34 32.79088 33.93226 16996 ft 408 kts 180°
2026-04-21 11:34 32.76255 33.93433 16492 ft 405 kts 180°
2026-04-21 11:35 32.73448 33.93639 15999 ft 403 kts 180°
2026-04-21 11:35 32.70653 33.93844 15504 ft 401 kts 180°
2026-04-21 11:35 32.67876 33.94047 15010 ft 399 kts 180°
2026-04-21 11:35 32.65111 33.94249 14517 ft 397 kts 179°
2026-04-21 11:36 32.62357 33.94450 14030 ft 395 kts 179°
2026-04-21 11:36 32.59613 33.94651 13534 ft 392 kts 179°
2026-04-21 11:36 32.56965 33.95205 13015 ft 388 kts 161°
2026-04-21 11:36 32.54662 33.96771 12721 ft 386 kts 141°
2026-04-21 11:37 32.52751 33.99048 12454 ft 386 kts 133°
2026-04-21 11:37 32.50918 34.01413 12167 ft 392 kts 133°
2026-04-21 11:37 32.49059 34.03783 11861 ft 392 kts 134°
2026-04-21 11:37 32.47205 34.06113 11554 ft 385 kts 134°
2026-04-21 11:38 32.45408 34.08354 11262 ft 376 kts 134°
2026-04-21 11:38 32.43662 34.10587 10961 ft 361 kts 129°
2026-04-21 11:38 32.42491 34.13152 10688 ft 352 kts 105°
2026-04-21 11:38 32.42004 34.15916 10454 ft 337 kts 100°
2026-04-21 11:39 32.41554 34.18604 10199 ft 329 kts 101°
2026-04-21 11:39 32.41094 34.21226 9953 ft 321 kts 102°
2026-04-21 11:39 32.40643 34.23757 9874 ft 307 kts 102°
2026-04-21 11:39 32.40205 34.26201 9572 ft 301 kts 102°
2026-04-21 11:40 32.39772 34.28611 9296 ft 296 kts 102°
2026-04-21 11:40 32.39347 34.30963 9057 ft 288 kts 102°
2026-04-21 11:40 32.38934 34.33243 8919 ft 281 kts 102°
2026-04-21 11:40 32.38522 34.35523 8807 ft 284 kts 102°
2026-04-21 11:41 32.38109 34.37810 8676 ft 283 kts 102°
2026-04-21 11:41 32.37699 34.40076 8551 ft 281 kts 102°
2026-04-21 11:41 32.37292 34.42323 8466 ft 278 kts 102°
2026-04-21 11:41 32.36893 34.44520 8358 ft 276 kts 102°
2026-04-21 11:42 32.36485 34.46763 8225 ft 275 kts 102°
2026-04-21 11:42 32.36089 34.48938 8122 ft 273 kts 102°
2026-04-21 11:42 32.35690 34.51129 8033 ft 272 kts 102°
2026-04-21 11:42 32.35221 34.53311 7855 ft 277 kts 110°
2026-04-21 11:43 32.34487 34.55430 7652 ft 279 kts 114°
2026-04-21 11:43 32.33685 34.57521 7443 ft 278 kts 115°
2026-04-21 11:43 32.32891 34.59595 7239 ft 276 kts 114°
2026-04-21 11:43 32.32115 34.61658 7030 ft 274 kts 114°
2026-04-21 11:44 32.31355 34.63715 6814 ft 272 kts 114°
2026-04-21 11:44 32.30602 34.65772 6611 ft 271 kts 114°
2026-04-21 11:44 32.29861 34.67807 6421 ft 268 kts 114°
2026-04-21 11:44 32.29125 34.69827 6213 ft 267 kts 114°
2026-04-21 11:45 32.28394 34.71836 5997 ft 265 kts 114°
2026-04-21 11:45 32.27673 34.73814 5819 ft 264 kts 114°
2026-04-21 11:45 32.26954 34.75786 5627 ft 262 kts 114°
2026-04-21 11:45 32.26233 34.77761 5414 ft 261 kts 114°
2026-04-21 11:46 32.25513 34.79735 5212 ft 261 kts 113°
2026-04-21 11:46 32.24900 34.81756 5018 ft 261 kts 107°
2026-04-21 11:46 32.24386 34.83815 4857 ft 261 kts 106°
2026-04-21 11:46 32.23872 34.85883 4648 ft 262 kts 107°
2026-04-21 11:47 32.23355 34.87923 4413 ft 256 kts 107°
2026-04-21 11:47 32.22848 34.89887 4242 ft 251 kts 107°
2026-04-21 11:47 32.22347 34.91826 4063 ft 242 kts 107°
2026-04-21 11:47 32.21861 34.93690 3867 ft 232 kts 108°
2026-04-21 11:48 32.21398 34.95462 3718 ft 220 kts 107°
2026-04-21 11:48 32.20953 34.97170 3607 ft 215 kts 109°
2026-04-21 11:48 32.20211 34.98607 3386 ft 201 kts 145°
2026-04-21 11:48 32.18947 34.99216 3301 ft 198 kts 174°
2026-04-21 11:49 32.17565 34.99233 3165 ft 199 kts 186°
2026-04-21 11:49 32.16185 34.99099 2996 ft 196 kts 191°
2026-04-21 11:49 32.14941 34.98554 2834 ft 190 kts 213°
2026-04-21 11:49 32.13782 34.97769 2714 ft 194 kts 210°
2026-04-21 11:50 32.12601 34.97017 2557 ft 191 kts 211°
2026-04-21 11:50 32.11442 34.96270 2269 ft 185 kts 211°
2026-04-21 11:50 32.10370 34.95574 2005 ft 169 kts 212°
2026-04-21 11:50 32.09337 34.94904 1835 ft 173 kts 212°
2026-04-21 11:51 32.08297 34.94226 1574 ft 164 kts 212°
2026-04-21 11:51 32.07336 34.93603 1409 ft 153 kts 213°
2026-04-21 11:51 32.06410 34.93001 1188 ft 152 kts 212°
2026-04-21 11:51 32.05484 34.92399 990 ft 152 kts 212°
2026-04-21 11:52 32.04549 34.91793 781 ft 154 kts 212°
2026-04-21 11:52 32.03606 34.91189 557 ft 152 kts 211°
2026-04-21 11:52 32.02681 34.90593 383 ft 152 kts 212°
2026-04-21 11:52 32.01744 34.89991 170 ft 154 kts 211°
2026-04-21 11:53 32.00867 34.89411 124 ft 127 kts 208°
2026-04-21 11:53 32.00293 34.89043 119 ft 61 kts 209°
2026-04-21 11:53 32.00098 34.88915 124 ft 16 kts 209°
2026-04-21 11:53 32.00043 34.88917 121 ft 7 kts 140°
2026-04-21 11:54 32.00012 34.88970 121 ft 9 kts 123°
2026-04-21 11:54 31.99979 34.89032 120 ft 9 kts 122°
2026-04-21 11:54 31.99944 34.89096 121 ft 9 kts 124°
2026-04-21 11:54 31.99905 34.89163 120 ft 10 kts 124°
2026-04-21 11:55 31.99865 34.89231 120 ft 10 kts 124°
2026-04-21 11:55 31.99826 34.89300 124 ft 10 kts 124°
2026-04-21 11:55 31.99787 34.89368 120 ft 10 kts 122°
2026-04-21 11:55 31.99753 34.89441 120 ft 10 kts 117°
2026-04-21 11:56 31.99726 34.89517 120 ft 10 kts 110°
2026-04-21 11:56 31.99701 34.89595 122 ft 10 kts 112°
2026-04-21 11:56 31.99674 34.89671 120 ft 10 kts 113°
2026-04-21 11:56 31.99648 34.89747 120 ft 10 kts 111°
2026-04-21 11:57 31.99623 34.89824 120 ft 10 kts 111°
2026-04-21 11:57 31.99604 34.89878 120 ft 4 kts 112°
2026-04-21 11:57 31.99588 34.89902 123 ft 4 kts 139°
2026-04-21 11:57 31.99564 34.89917 124 ft 4 kts 153°
2026-04-21 11:58 31.99539 34.89930 124 ft 4 kts 160°
2026-04-21 11:58 31.99512 34.89941 119 ft 4 kts 160°
2026-04-21 11:58 31.99493 34.89965 120 ft 4 kts 116°
2026-04-21 11:58 31.99490 34.90000 124 ft 4 kts 90°
2026-04-21 11:59 31.99490 34.90008 124 ft 2 kts 92°
2026-04-21 11:59 31.99489 34.90030 124 ft 3 kts 92°